Regional Weather Roundup
Issued by NWS

Home | Current Version | Previous Version | Graphics & Text | Print | Product List | Glossary On
Versions: 1 2 3 4 5 6 7 8 9 10 11 12 13 14 15 16 17 18 19 20 21 22 23 24 25 26 27 28 29 30 31 32 33 34 35 36 37 38 39 40 41 42 43 44 45 46 47 48 49 50
000
ASUS43 KLOT 121600
RWRIL

ILLINOIS REGIONAL WEATHER ROUNDUP
NATIONAL WEATHER SERVICE CHICAGO/ROMEOVILLE IL
1100 AM CDT SAT JUL 12 2014

NOTE: "FAIR" INDICATES FEW OR NO CLOUDS BELOW 12,000 FEET WITH NO
SIGNIFICANT WEATHER AND/OR OBSTRUCTIONS TO VISIBILITY.

* THESE STATIONS ARE NOT UNDER NWS QUALITY CONTROL. THEY ALSO MAY NOT
  REPORT WEATHER SUCH AS PRECIPITATION OR FOG.

ILZ001-002-007-009-015-016-024-121700-
NORTHWEST ILLINOIS

CITY           SKY/WX    TMP DP  RH WIND       PRES   REMARKS
MOLINE         MOSUNNY   79  71  76 VRB6      30.02S HX  82
STERLING*      CLOUDY    73  70  88 CALM      30.04R
$$

ILZ003-004-008-010-011-017-018-121700-
NORTH CENTRAL ILLINOIS

CITY           SKY/WX    TMP DP  RH WIND       PRES   REMARKS
ROCKFORD       CLOUDY    73  69  87 SE10      30.00R FOG
$$

ILZ005-006-012>014-019>023-121700-
NORTHEAST ILLINOIS

CITY           SKY/WX    TMP DP  RH WIND       PRES   REMARKS
CHICAGO-OHARE  LGT RAIN  72  67  84 S13       30.05S
CHICAGO-MIDWAY LGT RAIN  73  71  93 S12G20    30.05S
AURORA         LGT RAIN  72  69  90 SE13      30.03S FOG
WAUKEGAN       CLOUDY    73  68  84 S9        30.02S
DUPAGE AIRPORT LGT RAIN  72  70  93 SE8       30.04R
WHEELING       LGT RAIN  73  70  90 S12       30.05R
NORTHERLY ISL    N/A     71  68  90 S8          N/A
$$

LMZ740>746-121700-
SOUTHERN LAKE MICHIGAN

STATION/POSITION SKY/WX   TEMP    WIND        PRES    VSBY  WAVE
                          AIR SEA DIR/SP/G                  HT/PER
                          (F)     (DEG/KT/KT) (MB)    (MI)  (FT/S)
SOUTHERN BUOY              63 62  360/  2/  4 1017.4F         1/ 3
WAUKEGAN HARBOR            71     190/ 12/ 13 1017.6S
HARRISON CRIB              70     220/ 17/ 21   N/A
BURNHAM HARBOR             71     190/  9/ 15   N/A
CALUMET HARBOR             69     190/  7/ 10 1018.8R
BURNS HARBOR               70     220/  9/ 20 1019.3
MICHIGAN CITY              71     170/ 12/ 17   N/A
$$

ILZ025>027-034>036-040-047-049-050-058-095>099-121700-
WEST-CENTRAL ILLINOIS

CITY           SKY/WX    TMP DP  RH WIND       PRES   REMARKS
QUINCY         PTSUNNY   81  71  71 W8        30.07R HX  85
$$

ILZ028>032-037-038-041>044-048-051>054-059>061-121700-
CENTRAL ILLINOIS

CITY           SKY/WX    TMP DP  RH WIND       PRES   REMARKS
DECATUR        CLOUDY    78  73  84 S9        30.11R HX  81
PEORIA         CLOUDY    82  68  62 SE5       30.05F HX  85
SPRINGFIELD    MOSUNNY   87  75  67 W7        30.08S HX  96
TAYLORVILLE    NOT AVBL
$$

ILZ033-039-045-046-055>057-062-063-121700-
EAST-CENTRAL ILLINOIS

CITY           SKY/WX    TMP DP  RH WIND       PRES   REMARKS
CHAMPAIGN      CLOUDY    71  70  96 E8        30.15S
MATTOON        CLOUDY    72  72 100 S9        30.13R
$$

ILZ079-100>102-121700-
SOUTHWEST ILLINOIS

CITY           SKY/WX    TMP DP  RH WIND       PRES   REMARKS
ALTON          CLOUDY    82  77  83 SW9       30.10S HX  91
CAHOKIA*       PTSUNNY   84  74  71 SW5       30.10R HX  91
$$

ILZ064>066-069>071-074>076-080>082-084>086-088>090-092>094-121700-
SOUTH-CENTRAL ILLINOIS

CITY           SKY/WX    TMP DP  RH WIND       PRES   REMARKS
CARBONDALE     PTSUNNY   86  74  67 SW10      30.12F HX  94
MARION         PTSUNNY   86  75  70 S12       30.13F HX  95
MT. VERNON     CLOUDY    82  73  74 S9        30.13F HX  88
$$

ILZ067-068-072-073-078-083-087-091-121700-
SOUTHEAST ILLINOIS

CITY           SKY/WX    TMP DP  RH WIND       PRES   REMARKS
$$

ABBREVIATIONS USED IN REMARKS
   TC - TEMPERATURE IN CELSIUS
  WCI - WIND CHILL INDEX
   HX - HEAT INDEX
  VSB - VISIBILITY
$$




USA.gov is the U.S. government's official web portal to all federal, state and local government web resources and services.